Location: Spondin
(51.8528°N, 111.6118°W)
Time: 17:10:18
(UTC+00:00)

Vanguard 2 Rocket - Pass Details

Date: 29 May 2022
Orbit: 553 x 3323 km, 32.9° (Epoch: 02 July)

Event Time Altitude Azimuth Distance (km) Brightness Sun altitude
Rises 01:12:36 0° 268° (W) 6,696 12.8 18.5°
Reaches altitude 10° 01:19:16 10° 254° (WSW) 5,185 12.0 17.5°
Maximum altitude 01:27:45 19° 217° (SW) 3,706 10.4 16.2°
Drops below altitude 10° 01:34:03 10° 177° (S) 3,682 9.9 15.3°
Sets 01:37:41 0° 160° (SSE) 4,231 10.0 14.8°
